Location: Geyikbay?r?
(36.8756°N, 30.4583°E)
Time: 08:00:49
(UTC+00:00)

Cosmos 1092 Rocket - Pass Details

Date: 05 August 2024
Orbit: 954 x 994 km, 83.0° (Epoch: 10 September)

Event Time Altitude Azimuth Distance (km) Brightness Sun altitude
Rises 23:22:41 0° 350° (N) 3,642 7.8 -33.4°
Reaches altitude 10° 23:25:11 10° 349° (NNW) 2,696 6.9 -33.2°
Enters shadow 23:29:50 52° 329° (NNW) 1,181 4.5 -32.8°
